• In Russia
  • List of Countries
  • For 7 days
  • Water Temperature
  • Satellite Maps
  • Weather Map
  • Weather Widgets
  • user-avatar
    Login

    Hourly Weather Samarqand

    Today, 13 December, Thursday

    Time Temperature Precipitation Wind Pressure Humidity
    00:00 +6°C° 0 mm 2 mps 702 mmHg 48%
    01:00 +6°C° 0 mm 2 mps 702 mmHg 47%
    02:00 +6°C° 0 mm 2 mps 702 mmHg 46%
    03:00 +6°C° 0 mm 2 mps 702 mmHg 44%
    04:00 +6°C° 0 mm 2 mps 702 mmHg 43%
    05:00 +6°C° 0 mm 2 mps 702 mmHg 41%
    06:00 +6°C° 0 mm 2 mps 702 mmHg 40%
    07:00 +6°C° 0 mm 2 mps 702 mmHg 39%
    08:00 +8°C° 0 mm 2 mps 703 mmHg 34%
    09:00 +10°C° 0 mm 2 mps 703 mmHg 30%
    10:00 +13°C° 0 mm 2 mps 703 mmHg 26%
    11:00 +13°C° 0 mm 1 mps 703 mmHg 24%
    12:00 +14°C° 0 mm 1 mps 703 mmHg 23%
    13:00 +15°C° 0 mm 1 mps 702 mmHg 21%
    14:00 +14°C° 0 mm 2 mps 702 mmHg 24%
    15:00 +13°C° 0 mm 2 mps 702 mmHg 28%
    16:00 +12°C° 0 mm 2 mps 702 mmHg 31%
    17:00 +10°C° 0 mm 2 mps 702 mmHg 32%
    18:00 +9°C° 0 mm 2 mps 702 mmHg 32%
    19:00 +9°C° 0 mm 3 mps 703 mmHg 33%
    20:00 +9°C° 0 mm 3 mps 703 mmHg 32%
    21:00 +9°C° 0 mm 3 mps 703 mmHg 31%
    22:00 +8°C° 0 mm 3 mps 703 mmHg 30%
    23:00 +8°C° 0 mm 3 mps 702 mmHg 29%

    Tomorrow, 14 December, Friday

    Time Temperature Precipitation Wind Pressure Humidity
    00:00 +8°C° 0 mm 3 mps 702 mmHg 28%
    01:00 +8°C° 0 mm 3 mps 702 mmHg 28%
    02:00 +8°C° 0 mm 3 mps 702 mmHg 27%
    03:00 +8°C° 0 mm 3 mps 702 mmHg 26%
    04:00 +8°C° 0 mm 3 mps 702 mmHg 26%
    05:00 +8°C° 0 mm 3 mps 702 mmHg 26%
    06:00 +8°C° 0 mm 3 mps 703 mmHg 25%
    07:00 +8°C° 0 mm 3 mps 703 mmHg 25%
    08:00 +10°C° 0 mm 2 mps 703 mmHg 23%
    09:00 +13°C° 0 mm 2 mps 704 mmHg 21%
    10:00 +15°C° 0 mm 2 mps 704 mmHg 20%
    11:00 +16°C° 0 mm 2 mps 704 mmHg 18%
    12:00 +17°C° 0 mm 2 mps 704 mmHg 17%
    13:00 +19°C° 0 mm 1 mps 704 mmHg 15%
    14:00 +18°C° 0 mm 1 mps 704 mmHg 19%
    15:00 +15°C° 0 mm 2 mps 704 mmHg 22%
    16:00 +13°C° 0 mm 2 mps 704 mmHg 25%
    17:00 +13°C° 0 mm 1 mps 704 mmHg 26%
    18:00 +12°C° 0 mm 1 mps 704 mmHg 27%
    19:00 +11°C° 0 mm 1 mps 705 mmHg 28%
    20:00 +11°C° 0 mm 1 mps 705 mmHg 28%
    21:00 +10°C° 0 mm 1 mps 705 mmHg 28%
    22:00 +10°C° 0 mm 1 mps 705 mmHg 27%
    23:00 +9°C° 0 mm 1 mps 704 mmHg 28%

    Day after tomorrow, 15 December, Saturday

    Time Temperature Precipitation Wind Pressure Humidity
    00:00 +9°C° 0 mm 1 mps 704 mmHg 29%
    01:00 +8°C° 0 mm 1 mps 704 mmHg 30%
    02:00 +8°C° 0 mm 1 mps 704 mmHg 30%
    03:00 +8°C° 0 mm 1 mps 704 mmHg 30%
    04:00 +7°C° 0 mm 1 mps 704 mmHg 31%
    05:00 +7°C° 0 mm 1 mps 704 mmHg 30%
    06:00 +7°C° 0 mm 1 mps 704 mmHg 30%
    07:00 +7°C° 0 mm 1 mps 704 mmHg 30%
    08:00 +9°C° 0 mm 1 mps 705 mmHg 26%
    09:00 +11°C° 0 mm 1 mps 705 mmHg 23%
    10:00 +13°C° 0 mm 1 mps 705 mmHg 20%
    11:00 +14°C° 0 mm 1 mps 704 mmHg 19%
    12:00 +14°C° 0 mm 1 mps 704 mmHg 18%
    13:00 +15°C° 0 mm 1 mps 704 mmHg 17%
    14:00 +14°C° 0 mm 1 mps 704 mmHg 21%
    15:00 +13°C° 0 mm 1 mps 703 mmHg 24%
    16:00 +12°C° 0 mm 1 mps 703 mmHg 27%
    17:00 +11°C° 0 mm 1 mps 704 mmHg 28%
    18:00 +9°C° 0 mm 2 mps 704 mmHg 28%
    19:00 +8°C° 0 mm 2 mps 704 mmHg 29%
    20:00 +8°C° 0 mm 2 mps 704 mmHg 30%
    21:00 +7°C° 0 mm 2 mps 705 mmHg 32%
    22:00 +7°C° 0 mm 3 mps 705 mmHg 33%
    23:00 +7°C° 0 mm 3 mps 705 mmHg 35%

    16 December, Sunday

    Time Temperature Precipitation Wind Pressure Humidity
    00:00 +5°C° 0 mm 3 mps 705 mmHg 38%
    01:00 +5°C° 0 mm 3 mps 705 mmHg 41%
    02:00 +5°C° 0 mm 3 mps 706 mmHg 44%
    03:00 +4°C° 0 mm 3 mps 706 mmHg 48%
    04:00 +5°C° 0 mm 2 mps 706 mmHg 52%
    05:00 +4°C° 0 mm 2 mps 707 mmHg 55%
    06:00 +4°C° 0 mm 2 mps 707 mmHg 58%
    07:00 +5°C° 0 mm 1 mps 707 mmHg 61%
    08:00 +6°C° 0 mm 1 mps 708 mmHg 58%
    09:00 +6°C° 0 mm 2 mps 708 mmHg 54%
    10:00 +8°C° 0 mm 2 mps 709 mmHg 51%
    11:00 +8°C° 0 mm 2 mps 708 mmHg 48%
    12:00 +9°C° 0 mm 2 mps 708 mmHg 46%
    13:00 +10°C° 0 mm 2 mps 708 mmHg 44%
    14:00 +9°C° 0 mm 2 mps 708 mmHg 47%
    15:00 +8°C° 0 mm 2 mps 708 mmHg 50%
    16:00 +8°C° 0 mm 1 mps 708 mmHg 54%
    17:00 +8°C° 0 mm 1 mps 708 mmHg 57%
    18:00 +7°C° 0 mm 1 mps 707 mmHg 60%
    19:00 +6°C° 0 mm 1 mps 707 mmHg 63%
    20:00 +6°C° 0 mm 1 mps 707 mmHg 63%
    21:00 +6°C° 0 mm 1 mps 707 mmHg 63%
    22:00 +6°C° 0 mm 1 mps 707 mmHg 62%
    23:00 +6°C° 0 mm 1 mps 707 mmHg 61%

    17 December, Monday

    Time Temperature Precipitation Wind Pressure Humidity
    00:00 +5°C° 0 mm 1 mps 707 mmHg 60%
    01:00 +5°C° 0 mm 1 mps 707 mmHg 59%
    02:00 +5°C° 0 mm 1 mps 706 mmHg 58%
    03:00 +5°C° 0 mm 1 mps 706 mmHg 57%
    04:00 +4°C° 0 mm 0 mps 706 mmHg 56%
    05:00 +4°C° 0 mm 0 mps 706 mmHg 54%
    06:00 +3°C° 0 mm 0 mps 706 mmHg 52%
    07:00 +3°C° 0 mm 0 mps 706 mmHg 51%
    08:00 +5°C° 0 mm 0 mps 707 mmHg 44%
    09:00 +8°C° 0 mm 1 mps 707 mmHg 38%
    10:00 +10°C° 0 mm 1 mps 707 mmHg 32%
    11:00 +11°C° 0 mm 1 mps 706 mmHg 31%
    12:00 +12°C° 0 mm 1 mps 706 mmHg 29%
    13:00 +12°C° 0 mm 2 mps 705 mmHg 28%
    14:00 +11°C° 0 mm 1 mps 705 mmHg 31%
    15:00 +10°C° 0 mm 1 mps 705 mmHg 35%
    16:00 +9°C° 0 mm 1 mps 705 mmHg 38%
    17:00 +9°C° 0 mm 1 mps 705 mmHg 40%
    18:00 +7°C° 0 mm 2 mps 705 mmHg 42%
    19:00 +6°C° 0 mm 2 mps 705 mmHg 44%
    20:00 +6°C° 0 mm 2 mps 705 mmHg 45%
    21:00 +6°C° 0 mm 2 mps 705 mmHg 46%
    22:00 +6°C° 0 mm 2 mps 705 mmHg 46%
    23:00 +6°C° 0 mm 2 mps 704 mmHg 46%

    18 December, Tuesday

    Time Temperature Precipitation Wind Pressure Humidity
    00:00 +5°C° 0 mm 2 mps 704 mmHg 46%
    01:00 +5°C° 0 mm 2 mps 704 mmHg 45%
    02:00 +5°C° 0 mm 2 mps 704 mmHg 44%
    03:00 +5°C° 0 mm 2 mps 703 mmHg 44%
    04:00 +5°C° 0 mm 2 mps 703 mmHg 43%
    05:00 +5°C° 0 mm 2 mps 703 mmHg 42%
    06:00 +5°C° 0 mm 2 mps 703 mmHg 42%
    07:00 +5°C° 0 mm 2 mps 703 mmHg 41%
    08:00 +7°C° 0 mm 2 mps 703 mmHg 38%
    09:00 +9°C° 0 mm 2 mps 703 mmHg 35%
    10:00 +12°C° 0 mm 2 mps 703 mmHg 32%
    11:00 +12°C° 0 mm 2 mps 703 mmHg 31%
    12:00 +13°C° 0 mm 2 mps 702 mmHg 30%
    13:00 +13°C° 0 mm 3 mps 702 mmHg 29%
    14:00 +12°C° 0 mm 3 mps 701 mmHg 33%
    15:00 +11°C° 0 mm 3 mps 701 mmHg 36%
    16:00 +10°C° 0 mm 3 mps 701 mmHg 40%
    17:00 +9°C° 0 mm 3 mps 700 mmHg 41%
    18:00 +9°C° 0 mm 3 mps 700 mmHg 43%
    19:00 +8°C° 0 mm 3 mps 700 mmHg 44%
    20:00 +8°C° 0 mm 3 mps 700 mmHg 43%
    21:00 +8°C° 0 mm 3 mps 700 mmHg 42%
    22:00 +8°C° 0 mm 2 mps 699 mmHg 41%
    23:00 +8°C° 0 mm 2 mps 699 mmHg 40%
    Show more